Home > Weather > Wittenberge > Past weeks

Flag for Germany Past Weather in Wittenberge, Mecklenburg-Western Pomerania, Germany — Yesterday and Last 2 Weeks

Now
59 °F

Overcast.


Feels Like: 59 °F
Forecast: 55 / 65 °F
Wind: 5 mph from West

Location: Mecklenburg-Vorpommern - Parchim

Current Time: May 25, 2016 at 4:59:59 PM

Latest Report: May 25, 2016 at 3:50 PM


Visibility: N/A

Pressure: 29.95 "Hg

Humidity: 88%

Dew Point: 55 °F

Location of WittenbergeLocation

Past Weather in Wittenberge — Graph

°F

Wittenberge Temperature Yesterday

Maximum temperature yesterday: 59 °F (at 7:50 AM)
Minimum temperature yesterday: 55 °F (at 11:20 AM)
Average temperature yesterday: 57 °F

High & Low Weather Summary for the Past Weeks

 TemperatureHumidityPressure
High84 °F (May 22, 5:20 PM)100% (May 16, 6:50 AM)30.04 "Hg (May 16, 6:50 AM)
Low39 °F (May 16, 6:50 AM)25% (May 22, 5:50 PM)29.59 "Hg (May 13, 2:20 PM)
Average61 °F63%29.84 "Hg
* Reported May 10 3:20 PM — May 25 3:20 PM, Wittenberge, Weather by CustomWeather, © 2016

Note: Actual official high and low records may vary slightly from our data, if they occured in-between our weather recording intervals... More about our weather records

Advertising

Wittenberge Weather History for the Previous 24 Hours

Scroll right to see more
 ConditionsComfort  
Time TempWeatherWind HumidityBarometerVisibility
3:20 PM
Wed, May 25
59 °FOvercast.6 mph88%29.95 "Hg6 mi
2:50 PM59 °FOvercast.7 mph88%29.95 "Hg6 mi
2:20 PM59 °FOvercast.8 mph88%29.95 "Hg6 mi
1:50 PM57 °FLow clouds.7 mph88%29.95 "HgN/A
1:20 PM57 °FLow clouds.8 mph88%29.95 "HgN/A
12:50 PM59 °FLow clouds.9 mph82%29.95 "Hg6 mi
12:20 PM57 °FLow clouds.8 mph88%29.95 "Hg6 mi
11:50 AM57 °FLow clouds.7 mph88%29.95 "Hg6 mi
11:20 AM55 °FLow clouds.7 mph94%29.95 "Hg5 mi
10:50 AM55 °FLow clouds.8 mph94%29.95 "Hg4 mi
10:20 AM54 °FFog.7 mph100%29.95 "Hg2 mi
9:50 AM54 °FFog.8 mph94%29.95 "Hg1 mi
9:20 AM54 °FFog.8 mph94%29.95 "Hg2 mi
8:50 AM54 °FFog.8 mph94%29.95 "Hg2 mi
8:20 AM54 °FLow clouds.10 mph94%29.92 "Hg4 mi
7:50 AM54 °FLow clouds.8 mph94%29.92 "Hg5 mi
7:20 AM54 °FLow clouds.8 mph94%29.92 "Hg6 mi
6:50 AM54 °FLow clouds.7 mph94%29.92 "Hg5 mi
6:20 AM54 °FFog.8 mph94%29.92 "Hg3 mi
6:50 PM
Tue, May 24
59 °FPartly sunny.6 mph88%29.86 "HgN/A
6:20 PM59 °FPartly sunny.7 mph82%29.86 "HgN/A
5:50 PM57 °FPartly sunny.8 mph88%29.86 "HgN/A
5:20 PM59 °FPartly sunny.7 mph88%29.86 "HgN/A
4:50 PM57 °FPartly sunny.8 mph94%29.86 "HgN/A
4:20 PM59 °FLow clouds.6 mph82%29.86 "HgN/A
Weather by CustomWeather, © 2016

See weather overviewHow to use our weather pages